Купишкис

Литва     55°49′57″N   24°59′23″E
темп.,
°C
ветер,
м/с
пор.,
м/с
влажн.,
%
обл.,
%
осадки,
мм/ч
давл.,
гПа
погр.,
м
19 апреля, пн
пн1900:00+7всв311690 0.0 1022201
03:00+6всв37760 0.0 1022138
06:00+4всв36790 0.0 1022103
09:00+9всв46685 0.0 1022305
12:00+14в56505 0.0 10221164
15:00+16в453897 0.0 10212404
18:00+15всв354442 0.0 10202138
21:00+10ююв226893 0.0 102126
20 апреля, вт
вт2000:00+7в337858 0.0 102150
03:00+6всв23837 0.0 102051
06:00+5всв239282 0.0 101950
09:00+9в247886 0.0 1018403
12:00+11в346394 0.7 10161083
15:00+11всв336196 1.3 10151163
18:00+10св3461100 0.4 10131103
21:00+6св347872 0.5 101370
21 апреля, ср
ср2100:00+4всв259491 0.2 1012102
03:00+3в22968 0.2 101021
06:00+2ссв11965 0.0 101010
09:00+6ссз128217 0.0 1009358
12:00+10зсз345910 0.1 10071434
15:00+12сз4648100 0.2 10062058
18:00+12зсз244982 0.0 10061265
21:00+8ююз357189 0.0 100570
22 апреля, чт
чт2200:00+7з367961 0.0 1006164
03:00+5юз3688100 0.0 1006112
06:00+4юз2788100 0.0 1006216
09:00+4з3696100 0.4 1008579
12:00+7юз476592 0.1 10091408
15:00+11юз6942100 0.1 10092376
18:00+10юз594799 0.0 10102402
21:00+5зюз356791 0.0 1010108
23 апреля, пт
пт2300:00+3ююз347431 0.0 101078
03:00+1ююз24825 0.0 101064
06:000ю358669 0.0 100987
09:00+4ююз4571100 0.0 1008509
12:00+3юз3697100 0.4 1008345
15:00+6з466682 1.0 10081327
18:00+7зюз456765 0.6 10071114
21:00+3сз5996100 1.4 1008499